Flag for Germany Weather past 2 weeks in Leverkusen, North Rhine-Westphalia, Germany

Now
57 °F

Sprinkles. Partly cloudy.


Feels Like: 56 °F
Forecast: 54 / 63 °F
Wind: 7 mph from West

Location: Koeln / Bonn

Current Time: Aug 30, 2014 at 10:53:47 PM

Latest Report: Aug 30, 2014 at 10:20 PM


Visibility: N/A

Pressure: 30.04 "Hg

Humidity: 100%

Dew point: 57 °F

Location of LeverkusenLocation

Historic Weather in Leverkusen — Graph

°F

Leverkusen temperature yesterday

Maximum temperature yesterday: 68 °F (at 11:50 AM)
Minimum temperature yesterday: 59 °F (at 6:20 AM)
Average temperature yesterday: 63 °F

Past Weeks' High & Low Weather Summary

 TemperatureHumidityPressure
High73 °F (Aug 28, 1:20 PM)100% (Aug 16, 1:50 AM)30.09 "Hg (Aug 16, 1:50 AM)
Low45 °F (Aug 20, 5:20 AM)40% (Aug 18, 2:20 PM)29.62 "Hg (Aug 26, 4:50 AM)
Average58 °F79%29.94 "Hg
* Reported Aug 15 9:20 PM — Aug 30 9:20 PM, Leverkusen, Weather by CustomWeather, © 2014

Note: Actual official high and low records may vary slightly from our data, if they occured in-between our weather recording intervals... More about our weather records

Advertising

Leverkusen weather history for previous 24 hours

 ConditionsComfort  
Time TempWeatherWind HumidityBarometerVisibility
9:20 PM
Aug 30
61 °FRain showers. Broken clouds.1 mph88%30.01 "Hg6 mi
8:50 PM63 °FSprinkles. Broken clouds.8 mph83%30.01 "HgN/A
8:20 PM63 °FSprinkles. Partly sunny.7 mph83%30.01 "HgN/A
7:20 PM64 °FSprinkles. Partly sunny.8 mph78%30.01 "HgN/A
6:50 PM64 °FPartly sunny.8 mph78%30.01 "HgN/A
6:20 PM64 °FPartly sunny.9 mph78%30.01 "HgN/A
5:50 PM64 °FBroken clouds.10 mph73%30.01 "HgN/A
5:20 PM64 °FBroken clouds.7 mph83%30.01 "HgN/A
4:50 PM64 °FBroken clouds.10 mph78%30.01 "HgN/A
4:20 PM63 °FSprinkles. Scattered clouds.8 mph83%30.04 "HgN/A
3:50 PM64 °FSprinkles. Partly sunny.6 mph83%30.01 "HgN/A
3:20 PM64 °FPartly sunny.3 mph83%30.01 "HgN/A
2:20 PM64 °FScattered showers. Partly sunny.2 mph78%30.04 "HgN/A
1:50 PM64 °FScattered showers. Partly sunny.2 mph78%30.04 "HgN/A
1:20 PM64 °FPartly sunny.3 mph78%30.04 "HgN/A
12:50 PM64 °FBroken clouds.6 mph73%30.04 "HgN/A
12:20 PM64 °FBroken clouds.7 mph73%30.04 "HgN/A
11:50 AM64 °FBroken clouds.8 mph73%30.04 "HgN/A
11:20 AM63 °FLight rain. Broken clouds.8 mph77%30.04 "HgN/A
10:50 AM63 °FBroken clouds.9 mph77%30.04 "HgN/A
10:20 AM61 °FBroken clouds.9 mph83%30.04 "HgN/A
9:50 AM61 °FSunny.9 mph83%30.07 "Hg10 mi
9:20 AM61 °FSunny.7 mph83%30.07 "Hg10 mi
8:50 AM59 °FSunny.8 mph82%30.07 "Hg10 mi
8:20 AM59 °FSunny.6 mph82%30.04 "Hg10 mi
7:50 AM59 °FSunny.8 mph82%30.04 "Hg10 mi
7:20 AM57 °FClear.8 mph88%30.04 "Hg10 mi
6:50 AM57 °FClear.8 mph88%30.04 "Hg10 mi
6:20 AM57 °FClear.8 mph88%30.04 "Hg10 mi
5:50 AM57 °FClear.8 mph88%30.04 "Hg10 mi
5:20 AM59 °FClear.8 mph82%30.04 "Hg10 mi
4:50 AM57 °FClear.7 mph88%30.04 "Hg10 mi
4:20 AM57 °FClear.6 mph82%30.04 "Hg10 mi
3:50 AM59 °FClear.6 mph82%30.04 "Hg10 mi
3:20 AM57 °FClear.6 mph88%30.04 "Hg10 mi
2:50 AM59 °FClear.6 mph82%30.04 "Hg10 mi
2:20 AM61 °FClear.3 mph77%30.04 "Hg10 mi
1:50 AM61 °FClear.7 mph77%30.04 "Hg10 mi
1:20 AM59 °FLight rain. Passing clouds.6 mph88%30.04 "HgN/A
12:50 AM59 °FClear.6 mph88%30.04 "Hg10 mi
12:20 AM57 °FClear.3 mph88%30.04 "Hg10 mi
11:50 PM
Aug 29
59 °FClear.5 mph88%30.04 "Hg10 mi
11:20 PM59 °FClear.6 mph88%30.04 "Hg10 mi
Weather by CustomWeather, © 2014

See weather overviewHow to use our weather pages